TimeCST,TemperatureF,Dew PointF,Humidity,Sea Level PressureIn,VisibilityMPH,Wind Direction,Wind SpeedMPH,Gust SpeedMPH,PrecipitationIn,Events,Conditions,WindDirDegrees,DateUTC
12:16 AM,24.8,19.4,80,30.10,10.0,NNE,10.4,16.1,N/A,,Overcast,30,2013-02-28 06:16:00
12:37 AM,24.8,19.4,80,30.10,10.0,North,5.8,-,N/A,,Overcast,360,2013-02-28 06:37:00
1:16 AM,24.8,17.6,74,30.11,10.0,NE,5.8,-,N/A,,Overcast,40,2013-02-28 07:16:00
1:37 AM,24.8,17.6,74,30.12,10.0,NE,6.9,-,N/A,,Overcast,50,2013-02-28 07:37:00
1:56 AM,24.8,17.6,74,30.11,10.0,NNE,5.8,-,N/A,,Overcast,30,2013-02-28 07:56:00
2:17 AM,24.8,17.6,74,30.12,10.0,NNE,6.9,-,N/A,,Overcast,20,2013-02-28 08:17:00
2:37 AM,23.0,17.6,80,30.12,10.0,NNE,6.9,-,N/A,,Overcast,20,2013-02-28 08:37:00
2:56 AM,23.0,17.6,80,30.12,10.0,North,6.9,-,N/A,,Overcast,360,2013-02-28 08:56:00
3:17 AM,23.0,17.6,80,30.13,10.0,North,4.6,-,N/A,,Overcast,10,2013-02-28 09:17:00
3:37 AM,21.2,17.6,86,30.13,10.0,NNE,4.6,-,N/A,,Overcast,20,2013-02-28 09:37:00
3:56 AM,21.2,17.6,86,30.14,10.0,NNE,6.9,-,N/A,,Overcast,30,2013-02-28 09:56:00
4:17 AM,21.2,17.6,86,30.14,10.0,North,-9999.0,-,N/A,,Overcast,0,2013-02-28 10:17:00
4:36 AM,21.2,17.6,86,30.15,10.0,North,4.6,-,N/A,,Overcast,10,2013-02-28 10:36:00
4:57 AM,21.2,15.8,80,30.15,10.0,North,6.9,-,N/A,,Overcast,10,2013-02-28 10:57:00
5:17 AM,21.2,15.8,80,30.16,10.0,NNE,4.6,-,N/A,,Overcast,20,2013-02-28 11:17:00
5:36 AM,21.2,15.8,80,30.17,10.0,North,8.1,-,N/A,,Overcast,10,2013-02-28 11:36:00
5:57 AM,19.4,14.0,80,30.17,10.0,NNE,4.6,-,N/A,,Overcast,20,2013-02-28 11:57:00
6:17 AM,19.4,14.0,80,30.18,10.0,NNE,4.6,-,N/A,,Overcast,20,2013-02-28 12:17:00
6:36 AM,19.4,14.0,80,30.18,10.0,North,5.8,-,N/A,,Overcast,10,2013-02-28 12:36:00
6:57 AM,19.4,14.0,80,30.18,10.0,NNE,4.6,-,N/A,,Overcast,20,2013-02-28 12:57:00
7:17 AM,19.4,14.0,80,30.19,10.0,NNE,4.6,-,N/A,,Overcast,20,2013-02-28 13:17:00
7:36 AM,19.4,14.0,80,30.20,10.0,NNE,5.8,-,N/A,,Overcast,30,2013-02-28 13:36:00
7:57 AM,19.4,12.2,74,30.20,10.0,NNE,8.1,-,N/A,,Overcast,20,2013-02-28 13:57:00
8:17 AM,19.4,12.2,74,30.20,10.0,NE,8.1,-,N/A,,Overcast,50,2013-02-28 14:17:00
8:36 AM,19.4,12.2,74,30.20,10.0,NNE,6.9,-,N/A,,Overcast,30,2013-02-28 14:36:00
8:56 AM,21.2,14.0,74,30.20,10.0,NE,5.8,-,N/A,,Overcast,40,2013-02-28 14:56:00
9:16 AM,21.2,12.2,68,30.21,10.0,NE,4.6,-,N/A,,Overcast,40,2013-02-28 15:16:00
9:37 AM,21.2,12.2,68,30.22,10.0,NNE,8.1,-,N/A,,Overcast,30,2013-02-28 15:37:00
9:56 AM,21.2,12.2,68,30.22,10.0,NE,5.8,-,N/A,,Overcast,40,2013-02-28 15:56:00
10:17 AM,21.2,12.2,68,30.22,10.0,NE,8.1,-,N/A,,Overcast,40,2013-02-28 16:17:00
10:37 AM,21.2,12.2,68,30.22,10.0,North,6.9,-,N/A,,Mostly Cloudy,360,2013-02-28 16:37:00
10:56 AM,21.2,12.2,68,30.21,10.0,North,4.6,-,N/A,,Scattered Clouds,10,2013-02-28 16:56:00
11:17 AM,23.0,12.2,63,30.21,10.0,NE,4.6,-,N/A,,Clear,50,2013-02-28 17:17:00
11:36 AM,24.8,12.2,59,30.21,10.0,NE,3.5,-,N/A,,Clear,50,2013-02-28 17:36:00
11:56 AM,24.8,12.2,59,30.22,10.0,NNE,8.1,-,N/A,,Clear,30,2013-02-28 17:56:00
12:17 PM,24.8,12.2,59,30.22,10.0,NNE,5.8,-,N/A,,Clear,30,2013-02-28 18:17:00
12:36 PM,26.6,12.2,55,30.22,10.0,NNE,6.9,-,N/A,,Clear,30,2013-02-28 18:36:00
12:56 PM,26.6,12.2,55,30.21,10.0,ENE,4.6,-,N/A,,Clear,60,2013-02-28 18:56:00
1:17 PM,26.6,12.2,55,30.21,10.0,NNE,4.6,-,N/A,,Clear,20,2013-02-28 19:17:00
1:36 PM,28.4,12.2,51,30.21,10.0,NE,6.9,-,N/A,,Clear,40,2013-02-28 19:36:00
1:56 PM,28.4,12.2,51,30.21,10.0,NNE,5.8,-,N/A,,Clear,30,2013-02-28 19:56:00
2:17 PM,28.4,12.2,51,30.21,10.0,NE,3.5,-,N/A,,Clear,40,2013-02-28 20:17:00
2:36 PM,28.4,12.2,51,30.21,10.0,NE,5.8,-,N/A,,Clear,50,2013-02-28 20:36:00
2:56 PM,28.4,12.2,51,30.21,10.0,NNE,6.9,-,N/A,,Clear,30,2013-02-28 20:56:00
3:17 PM,28.4,12.2,51,30.22,10.0,NNE,5.8,-,N/A,,Clear,20,2013-02-28 21:17:00
3:36 PM,28.4,12.2,51,30.22,10.0,North,8.1,-,N/A,,Clear,360,2013-02-28 21:36:00
3:56 PM,28.4,12.2,51,30.22,10.0,NNE,8.1,-,N/A,,Clear,30,2013-02-28 21:56:00
4:17 PM,26.6,12.2,55,30.22,10.0,NNE,8.1,-,N/A,,Clear,30,2013-02-28 22:17:00
4:36 PM,26.6,10.4,51,30.23,10.0,NNE,5.8,-,N/A,,Clear,30,2013-02-28 22:36:00
4:56 PM,26.6,10.4,51,30.23,10.0,NE,3.5,-,N/A,,Clear,50,2013-02-28 22:56:00
5:17 PM,26.6,10.4,51,30.24,10.0,NNE,6.9,-,N/A,,Clear,30,2013-02-28 23:17:00
6:16 PM,24.8,10.4,54,30.26,10.0,NNE,4.6,-,N/A,,Clear,30,2013-03-01 00:16:00
6:37 PM,23.0,8.6,54,30.27,10.0,NE,4.6,-,N/A,,Clear,40,2013-03-01 00:37:00
6:56 PM,23.0,8.6,54,30.27,10.0,NE,3.5,-,N/A,,Clear,40,2013-03-01 00:56:00
7:17 PM,21.2,8.6,58,30.27,10.0,NNE,3.5,-,N/A,,Clear,30,2013-03-01 01:17:00
7:37 PM,21.2,8.6,58,30.28,10.0,NNE,3.5,-,N/A,,Clear,30,2013-03-01 01:37:00
7:56 PM,21.2,8.6,58,30.28,10.0,NNE,3.5,-,N/A,,Clear,30,2013-03-01 01:56:00
8:17 PM,21.2,8.6,58,30.28,10.0,NE,3.5,-,N/A,,Clear,50,2013-03-01 02:17:00
8:36 PM,21.2,8.6,58,30.28,10.0,NE,4.6,-,N/A,,Clear,50,2013-03-01 02:36:00
9:17 PM,19.4,8.6,63,30.29,10.0,NE,3.5,-,N/A,,Clear,40,2013-03-01 03:17:00
9:36 PM,19.4,6.8,58,30.29,10.0,NE,3.5,-,N/A,,Clear,40,2013-03-01 03:36:00
9:57 PM,19.4,6.8,58,30.29,10.0,Calm,Calm,-,N/A,,Clear,0,2013-03-01 03:57:00
10:16 PM,17.6,6.8,63,30.29,10.0,NE,4.6,-,N/A,,Clear,50,2013-03-01 04:16:00
10:37 PM,17.6,6.8,63,30.29,10.0,NE,3.5,-,N/A,,Clear,50,2013-03-01 04:37:00
10:57 PM,17.6,6.8,63,30.29,10.0,ENE,4.6,-,N/A,,Clear,60,2013-03-01 04:57:00
11:16 PM,17.6,6.8,63,30.29,10.0,ENE,5.8,-,N/A,,Clear,60,2013-03-01 05:16:00
11:37 PM,17.6,5.0,58,30.29,10.0,NE,4.6,-,N/A,,Clear,50,2013-03-01 05:37:00
11:57 PM,15.8,5.0,62,30.30,10.0,ENE,3.5,-,N/A,,Clear,60,2013-03-01 05:57:00